Tracking 17264 objects as of 1-September-2015
HD Live streaming from Space Station

BREEZE-M DEB (TANK)

Track BREEZE-M DEB (TANK) now!
BREEZE-M DEB (TANK) is classified as:


NORAD ID: 32374
Int'l Code: 2007-058B
Perigee: 459.2 km
Apogee: 34,590.5 km
Inclination: 46.4 °
Period: 612.7 minutes
Semi major axis: 23895 km
RCS: 5.0489 m2 (large)
Launch date: December 9, 2007
Source: Commonwealth of Independent States (former USSR) (CIS)

Note: This is SATELLITE DEBRIS
Your satellite tracking list
Your tracking list is empty





NASA's NSSDC Master Catalog

Two Line Element Set (TLE):
1 32374U 07058B   15244.41530221 -.00000080  00000-0  71625-4 0  9997
2 32374  46.4164  10.6092 7141678  77.8093 355.9772  2.35028091 65393

Source of the keplerian elements: AFSPC

N2YO: 364